User: anonymous
Location: NJAA Observatory
(40.6819°N, 74.8979°W)
Time: 07:51:13
(UTC-04:00)
Language:

Cosmos 2082 - Orbit

View from above orbital plane
View from above orbital plane
View from above satellite
View from above satellite

Ground track
Ground track

The orbit data is extracted from the following two-line orbital elements,

1 20624U 90046A   14211.70460828  .00000293  00000-0  17846-3 0  9776
2 20624 071.0386 257.2829 0015414 199.6028 299.7274 14.14076675248405
Epoch (UTC): 30 July 2014 16:54:38
Eccentricity: 0.0015414
inclination: 71.0386°
perigee height: 834 km
apogee height: 856 km
right ascension of ascending node: 257.2829°
argument of perigee: 199.6028°
revolutions per day: 14.14076675
mean anomaly at epoch: 299.7274°
orbit number at epoch: 24840

The dashed part of the orbit path shows where the satellite is in the earth's shadow,  

DLR